Tracking 18850 objects as of 22-Nov-2017
HD Live streaming from Space Station
objects crossing your sky now

FENGYUN 1C DEB

Track FENGYUN 1C DEB now!
10-day predictions


NORAD ID: 30697
Int'l Code: 1999-025ARF
Perigee: 818.9 km
Apogee: 965.3 km
Inclination: 99.1 °
Period: 102.7 minutes
Semi major axis: 7263 km
RCS: 0.022 m2 (small)
Launch date: May 10, 1999
Source: People's Republic of China (PRC)
Launch site: Taiyaun Space Center, China (TSC)

Note: This is SATELLITE DEBRIS
aabbcc
Your satellite tracking list
Your tracking list is empty




NASA's NSSDC Master Catalog

Two Line Element Set (TLE):
1 30697U 99025ARF 17325.60754529 +.00000817 +00000-0 +53457-3 0  9999
2 30697 099.1104 358.1931 0100830 113.4689 015.7406 14.02555280549132
Source of the keplerian elements: AFSPC